Regional Weather Roundup
Issued by NWS Cleveland, OH

Home | Current Version | Previous Version | Graphics & Text | Print | Product List | Glossary On
Versions: 1 2 3 4 5 6 7 8 9 10 11 12 13 14 15 16 17 18 19 20 21 22 23 24 25 26 27 28 29 30 31 32 33 34 35 36 37 38 39 40 41 42 43 44 45 46 47 48 49 50
000
ASUS41 KCLE 301410
RWRCLE
OHIO REGIONAL WEATHER ROUNDUP
NATIONAL WEATHER SERVICE WILMINGTON, OH
1000 AM EDT TUE JUN 30 2015

NOTE: "FAIR" INDICATES FEW OR NO CLOUDS BELOW 12,000 FEET WITH NO
SIGNIFICANT WEATHER AND/OR OBSTRUCTIONS TO VISIBILITY.

OHZ001>008-015>018-024>027-034-035-043-044-301500-
   NORTHWEST OHIO

CITY           SKY/WX    TMP DP  RH WIND       PRES   REMARKS
DEFIANCE       CLOUDY    67  60  78 CALM      29.83F
FINDLAY        CLOUDY    65  62  90 S8        29.84S
TOLEDO EXPRESS CLOUDY    65  59  81 VRB7      29.83S
TOLEDO EXEC    MOSUNNY   68  59  73 W9        29.84S
LIMA           CLOUDY    66  63  90 S8        29.84F
$$

OHZ009>014-019>023-028>033-038-089-301500-
   NORTHEAST OHIO

CITY           SKY/WX    TMP DP  RH WIND       PRES   REMARKS
CLE-HOPKINS    PTSUNNY   68  60  75 SW10      29.85S
CLE-LAKEFRONT  CLOUDY    67  60  78 SW13      29.82S
CUY CO. ARPT   CLOUDY    68  63  83 SW12      29.83S
LORAIN-ELYRIA  SUNNY     67  59  75 W9        29.84S
ASHTABULA      CLOUDY    67  62  84 SW10      29.84S
AKRON-CANTON   CLOUDY    68  59  73 W10       29.86S
WOOSTER        PTSUNNY   68  61  78 SW10      29.86S
MANSFIELD      CLOUDY    65  61  87 SW8       29.87R
YOUNGSTOWN     CLOUDY    66  61  84 SW8       29.86R
$$

OHZ042-051>053-060>062-070>072-077>081-301500-
  SOUTHWEST OHIO

CITY           SKY/WX    TMP DP  RH WIND       PRES   REMARKS
CINC-COVINGTON PTSUNNY   70  66  87 SW7       29.90R
CINC-LUNKEN    MOSUNNY   72  66  81 SW7       29.89S
HAMILTON       MOSUNNY   72  67  84 VRB5      29.88F
DAYTON         CLOUDY    69  65  86 SW10      29.87F
WRIGHT-PAT AFB PTSUNNY   70  64  83 SW9       29.86F
DAYTON GENERAL CLOUDY    68  65  90 SW7       29.87F
WILMINGTON     CLOUDY    69  64  84 SW13      29.88S
$$

OHZ036-037-039>041-045>050-054>059-063>069-073>076-082>088-301500-
  CENTRAL AND SOUTHEAST OHIO

CITY           SKY/WX    TMP DP  RH WIND       PRES   REMARKS
COLUMBUS       PTSUNNY   69  65  86 SW10      29.86F
OSU AIRPORT    CLOUDY    68  63  84 SW10      29.87R
BOLTON FIELD   CLOUDY    70  66  88 SW12      29.87F
RICKENBACK AFB CLOUDY    68  64  88 SW9       29.86F
NEWARK         CLOUDY    69  66  90 SW7       29.87S
MARION         CLOUDY    66  62  87 S8        29.87S
LANCASTER      CLOUDY    71  65  81 SW9       29.88S
ZANESVILLE     CLOUDY    68  63  84 SW7       29.88S HAZE
NEW PHILLY     LGT RAIN  67  64  90 SW5       29.87S
$$


USA.gov is the U.S. government's official web portal to all federal, state and local government web resources and services.